Tracking 17149 objects as of 22-May-2015
HD Live streaming from Space Station

SL-12 R/B(AUX MOTOR)


SL-12 R/B(AUX MOTOR) is no longer on orbit
SL-12 R/B(AUX MOTOR) is classified as:


NORAD ID: 22528
Int'l Code: 1993-010H
Perigee: N/A
Apogee: N/A
Inclination: N/A
Period: N/A
Semi major axis: N/A
RCS: N/A
Launch date: February 17, 1993
Source: Commonwealth of Independent States (former USSR) (CIS)
Decay date: 1998-11-18

Note: This is a ROCKET BODY
Your satellite tracking list
Your tracking list is empty





NASA's NSSDC Master Catalog

Two Line Element Set (TLE):
1 22528U 93010H   98322.45244752  .81594232  28474-5  56296-3 0  9994
2 22528 064.0293 294.4209 0287453 207.9062 293.5792 15.97497512 95034

Source of the keplerian elements: AFSPC

N2YO: 337